Skip Page Navigation
NASA JPL Caltech
NASA Logo - Jet Propulsion Laboratory + View the NASA Portal
+ Center for Near-Earth Object Studies
JPL Home Earth Solar System Stars & Galaxies Technology
JPL Solar System Dynamics
BODIES ORBITS EPHEMERIDES TOOLS PHYSICAL DATA DISCOVERY FAQ SITE MAP
IMPORTANT: The SSD Announcement email list is now available. Major changes are coming in the near future, including possible hostname and/or URL changes. To be notified of such changes, subscribe to this email list.

Please visit this page for more details.


JPL Small-Body Database Browser
Search: [ help ]  
452066 (2014 OP324)
Classification: Main-belt Asteroid          SPK-ID: 2452066
Ephemeris | Orbit Diagram | Orbital Elements | Mission Design | Physical Parameters | Discovery Circumstances ]

[ show orbit diagram ]
Orbital Elements at Epoch 2458600.5 (2019-Apr-27.0) TDB
Reference: JPL 16 (heliocentric ecliptic J2000)
 Element Value Uncertainty (1-sigma)   Units 
e .1052742628080167 8.4687e-08  
a 2.721802264391351 4.133e-08 au
q 2.435266537498361 2.44e-07 au
i 6.504174788656291 8.038e-06 deg
node 112.5951015156165 5.7012e-05 deg
peri 322.2994700048702 6.8312e-05 deg
M 260.1315803343825 3.3323e-05 deg
tp 2459055.497447452361
(2020-Jul-24.99744745)
0.00015336 TDB
period 1640.148924267422
4.49
3.7358e-05
1.023e-07
d
yr
n .2194922635825861 4.9994e-09 deg/d
Q 3.008337991284342 4.5681e-08 au
  Orbit Determination Parameters
   # obs. used (total)      97  
   data-arc span      8450 days (23.13 yr)  
   first obs. used      1994-01-17  
   last obs. used      2017-03-07  
   planetary ephem.      DE431  
   SB-pert. ephem.      SB431-N16  
   condition code      0  
   norm. resid. RMS      .6306  
   source      ORB  
   producer      Otto Matic  
   solution date      2017-Apr-09 10:53:38  

Additional Information
 Earth MOID = 1.45425 au 
 Jupiter MOID = 2.21207 au 
 T_jup = 3.341 
[ show covariance matrix ]

Ephemeris | Orbit Diagram | Orbital Elements | Mission Design | Physical Parameters | Discovery Circumstances ]

Physical Parameter Table
Parameter Symbol Value Units Sigma Reference Notes
absolute magnitude H 17.3   n/a MPO361088  

452066 (2014 OP324)          Discovered 2006-Nov-19 by CSS at Catalina
Reference: Last Updated: 2015-11-30

Alternate Designations
 2014 OP324 = 2006 WX106 = 2012 BB46 = 2012 BW153 
Ephemeris | Orbit Diagram | Orbital Elements | Mission Design | Physical Parameters | Discovery Circumstances ]
ABOUT SSD CREDITS/AWARDS PRIVACY/COPYRIGHT GLOSSARY LINKS
FirstGov 2019-Dec-14 16:48 UT
(server date/time)  
NASA Home Page
Site Manager:   Ryan S. Park
Webmaster  Alan B. Chamberlin